Regional Weather Roundup
Issued by NWS

Home | Current Version | Previous Version | Text Only | Print | Product List | Glossary Off
Versions: 1 2 3 4 5 6 7 8 9 10 11 12 13 14 15 16 17 18 19 20 21 22 23 24 25 26 27 28 29 30 31 32 33 34 35 36 37 38 39 40 41 42 43 44 45 46 47 48 49 50

000
ASUS43 KLOT 011703
RWRIL

ILLINOIS REGIONAL WEATHER ROUNDUP
NATIONAL WEATHER SERVICE CHICAGO/ROMEOVILLE IL
1100 AM CST WED MAR 01 2017

NOTE: "FAIR" INDICATES FEW OR NO CLOUDS BELOW 12,000 FEET WITH NO
SIGNIFICANT WEATHER AND/OR OBSTRUCTIONS TO VISIBILITY.

* THESE STATIONS ARE NOT UNDER NWS QUALITY CONTROL. THEY ALSO MAY NOT
  REPORT WEATHER SUCH AS PRECIPITATION OR FOG.

ILZ001-002-007-009-015-016-024-011800-
NORTHWEST ILLINOIS

CITY           SKY/WX    TMP DP  RH WIND       PRES   REMARKS
MOLINE         CLOUDY    38  32  79 W20G35    29.75R WCI  28
STERLING*      MIX PCPN  37  35  92 W29G36    29.67R WCI  25
$$

ILZ003-004-008-010-011-017-018-011800-
NORTH CENTRAL ILLINOIS

CITY           SKY/WX    TMP DP  RH WIND       PRES   REMARKS
ROCKFORD       LGT RAIN  39  35  86 NW14      29.64R WCI  31
FREEPORT*      CLOUDY    35  34  93 NW15G21   29.66R WCI  26
ROCHELLE*      CLOUDY    38  36  91 NW17G23   29.64R WCI  28
DE KALB*       CLOUDY    39  37  92 W22G29    29.61R WCI  28
PERU*          CLOUDY    37  34  87 W25G45    29.68R WCI  26
$$

ILZ005-006-012>014-019>023-011800-
NORTHEAST ILLINOIS

CITY           SKY/WX    TMP DP  RH WIND       PRES   REMARKS
CHICAGO-OHARE  CLOUDY    40  35  83 W17G25    29.57R
CHICAGO-MIDWAY CLOUDY    42  37  82 NW18G25   29.57R
AURORA         CLOUDY    41  37  86 W22       29.61R
LANSING*       CLOUDY    42  40  89 W24G32    29.58R
WAUKEGAN       CLOUDY    37  35  92 NW14G20   29.55R FOG     WCI  28
DUPAGE AIRPORT CLOUDY    40  35  83 W18G29    29.58R
KANKAKEE*      CLOUDY    42  40  92 W26G32    29.63R
WHEELING       CLOUDY    39  35  86 NW13G21   29.58R WCI  31
MORRIS*        CLOUDY    42  39  91 W24G31    29.61R
ROMEOVILLE*    CLOUDY    41  40  94 W21G31    29.60R
NORTHERLY ISL    N/A     41  39  93 W13         N/A
$$

LMZ740>746-011800-
SOUTHERN LAKE MICHIGAN

STATION/POSITION SKY/WX   TEMP    WIND        PRES    VSBY  WAVE
                          AIR SEA DIR/SP/G                  HT/PER
                          (F)     (DEG/KT/KT) (MB)    (MI)  (FT/S)
HARRISON CRIB              40     290/ 14/ 15   N/A
BURNHAM HARBOR             41     270/ 10/ 17   N/A
CALUMET HARBOR             39     280/  3/  8 1000.4R
BURNS HARBOR               36     320/ 10/ 14 1001.7R
MICHIGAN CITY              36     290/ 20/ 23   N/A
$$

ILZ025>027-034>036-040-047-049-050-058-095>099-011800-
WEST-CENTRAL ILLINOIS

CITY           SKY/WX    TMP DP  RH WIND       PRES   REMARKS
QUINCY         CLOUDY    40  33  76 NW28      29.88R
GALESBURG*     CLOUDY    37  33  88 W31G38    29.77R WCI  24
MACOMB*        CLOUDY    40  35  83 W24G38    29.83R
JACKSONVILLE*  CLOUDY    42  35  77 W22G33    29.85R
PITTSFIELD*    CLOUDY    43  33  70 W21G32    29.89R
$$

ILZ028>032-037-038-041>044-048-051>054-059>061-011800-
CENTRAL ILLINOIS

CITY           SKY/WX    TMP DP  RH WIND       PRES   REMARKS
PONTIAC        CLOUDY    41  40  94 W33G41    29.68R
BLOOMINGTON    CLOUDY    40  37  89 W26G37    29.72R
DECATUR        CLOUDY    45  38  76 W24G33    29.76R
PEORIA         CLOUDY    39  35  86 W25G36    29.77R WCI  28
LACON*         CLOUDY    39  36  88 W20G28    29.73R WCI  29
LINCOLN*       CLOUDY    44  38  82 W16G25    29.78R
SPRINGFIELD    CLOUDY    44  35  70 W23G39    29.80R
TAYLORVILLE    CLOUDY    44  38  79 W23G35    29.81R
$$

ILZ033-039-045-046-055>057-062-063-011800-
EAST-CENTRAL ILLINOIS

CITY           SKY/WX    TMP DP  RH WIND       PRES   REMARKS
CHAMPAIGN      CLOUDY    44  39  82 W28G37    29.72R
RANTOUL*       CLOUDY    45  41  87 W26G39    29.69R
MATTOON        CLOUDY    45  42  89 W29G36    29.74R
PARIS*         CLOUDY    45  42  89 W30G37    29.73R
$$

ILZ079-100>102-011800-
SOUTHWEST ILLINOIS

CITY           SKY/WX    TMP DP  RH WIND       PRES   REMARKS
ALTON          CLOUDY    45  37  76 W23G32    29.87R
BELLEVILLE     CLOUDY    47  38  70 W13G31    29.86R
CAHOKIA*       CLOUDY    49  36  61 W20G28    29.89R
SPARTA*        CLOUDY    46  39  76 W16G26    29.90R
$$

ILZ064>066-069>071-074>076-080>082-084>086-088>090-092>094-011800-
SOUTH-CENTRAL ILLINOIS

CITY           SKY/WX    TMP DP  RH WIND       PRES   REMARKS
CARBONDALE     PTSUNNY   51  43  74 W17G29    29.88R
CAIRO*         MOSUNNY   59  48  67 W21       29.87R
EFFINGHAM*     CLOUDY    47  42  85 W24G36    29.80R
MARION         PTSUNNY   57  48  72 W12G23    29.87R
MT. VERNON     CLOUDY    48  41  76 W12G22    29.86R
CENTRALIA*     CLOUDY    47  42  81 W15G30    29.85R
SALEM*         CLOUDY    48  41  77 W20G29    29.83R
METROPOLIS*    MOSUNNY   60  48  65 W16G23    29.85R
$$

ILZ067-068-072-073-078-083-087-091-011800-
SOUTHEAST ILLINOIS

CITY           SKY/WX    TMP DP  RH WIND       PRES   REMARKS
LAWRENCEVILLE  CLOUDY    53  45  74 W20G32    29.76R
FLORA*         CLOUDY    50  44  78 W14G26    29.81R
FAIRFIELD*     CLOUDY    50  44  78 W9        29.82R
HARRISBURG*    CLOUDY    54  46  74 W21G26    29.85R
ROBINSON*      CLOUDY    51  46  81 W25G31    29.76R
$$

ABBREVIATIONS USED IN REMARKS
   TC - TEMPERATURE IN CELSIUS
  WCI - WIND CHILL INDEX
   HX - HEAT INDEX
  VSB - VISIBILITY
$$




USA.gov is the U.S. government's official web portal to all federal, state and local government web resources and services.